Weather History for KBFL - September, 2013

Change the Weather History Date:

Monday, September 9, 2013

  Actual Average Record
Temperature  
Mean Temperature 86 °F 79 °F  
Max Temperature 98 °F 92 °F 108 °F (1904)
Min Temperature 74 °F 66 °F 48 °F (1901)
Degree Days  
Heating Degree Days 0    
Month to date heating degree days 0  
Since 1 July heating degree days 0  
Cooling Degree Days 21    
Month to date cooling degree days 170  
Year to date cooling degree days 2284  
Growing Degree Days 36 (Base 50)    
Moisture  
Dew Point 48 °F    
Average Humidity 30    
Maximum Humidity 43    
Minimum Humidity 16    
Precipitation  
Precipitation 0.00 in 0.00 in 0.00 in (2015)
Month to date precipitation T 0.01  
Year to date precipitation 2.36 4.44  
Since 1 July precipitation T 0.05  
Snow  
Snow 0.00 in - - ()
Month to date snowfall 0.0  
Since 1 July snowfall 0.0  
Since 1 September snowfall 0.0  
Snow Depth 0.00 in    
Sea Level Pressure  
Sea Level Pressure 29.71 in    
Wind  
Wind Speed 4 mph (NW)    
Max Wind Speed 12 mph    
Max Gust Speed 15 mph    
Visibility 10 miles    
Events      
T = Trace of Precipitation, MM = Missing Value Source: NWS Daily Summary

Daily Weather History Graph

Daily Weather History Graph

Search for Another Location

Airport or City:

Trip Planner

Search our weather history database for the weather conditions in past years. The results will help you decide how hot, cold, wet, or windy it might be!

Date:

Astronomy

Sep. 09, 2013 Rise Set
Actual Time 6:34 AM PDT 7:11 PM PDT
Civil Twilight 6:09 AM PDT 7:37 PM PDT
Nautical Twilight 5:38 AM PDT 8:07 PM PDT
Astronomical Twilight 5:07 AM PDT 8:38 PM PDT
Moon 10:50 AM PDT (9/9) 9:43 PM PDT (9/9)
Length of Visible Light 13h 28m
Length of Day
12h 36m
Waxing Crescent, 20% of the Moon is Illuminated
Sep 9
Waxing Crescent
Sep 12
First Quarter
Sep 19
Full
Sep 26
Last Quarter
Oct 4
New

Hourly Weather History & Observations

Time (PDT) Temp. Dew Point Humidity Pressure Visibility Wind Dir Wind Speed Gust Speed Precip Events Conditions
12:54 AM 79.0 °F 46.9 °F 32% 29.75 in 10.0 mi NW 3.5 mph - N/A   Clear
1:54 AM 78.1 °F 45.0 °F 31% 29.74 in 10.0 mi NE 3.5 mph - N/A   Clear
2:54 AM 82.0 °F 46.0 °F 28% 29.72 in 10.0 mi North 5.8 mph - N/A   Clear
3:54 AM 77.0 °F 50.0 °F 39% 29.72 in 10.0 mi SE 5.8 mph - N/A   Clear
4:54 AM 75.0 °F 52.0 °F 44% 29.73 in 10.0 mi Calm Calm - N/A   Clear
5:54 AM 75.0 °F 51.1 °F 43% 29.74 in 10.0 mi ESE 5.8 mph - N/A   Clear
6:54 AM 75.0 °F 51.1 °F 43% 29.75 in 10.0 mi Calm Calm - N/A   Clear
7:54 AM 78.1 °F 48.0 °F 35% 29.76 in 10.0 mi ESE 4.6 mph - N/A   Clear
8:54 AM 81.0 °F 50.0 °F 34% 29.76 in 10.0 mi SE 5.8 mph - N/A   Clear
9:54 AM 84.9 °F 48.9 °F 29% 29.77 in 10.0 mi South 4.6 mph - N/A   Clear
10:54 AM 88.0 °F 48.9 °F 26% 29.76 in 9.0 mi SSW 3.5 mph - N/A   Clear
11:54 AM 91.9 °F 48.9 °F 23% 29.74 in 10.0 mi WNW 3.5 mph - N/A   Clear
12:54 PM 96.1 °F 45.0 °F 17% 29.72 in 10.0 mi WNW 9.2 mph - N/A   Clear
1:54 PM 97.0 °F 42.1 °F 15% 29.70 in 10.0 mi West 6.9 mph - N/A   Clear
2:54 PM 97.0 °F 42.1 °F 15% 29.68 in 10.0 mi WNW 8.1 mph - N/A   Clear
3:54 PM 97.0 °F 44.1 °F 16% 29.65 in 10.0 mi NW 8.1 mph - N/A   Clear
4:54 PM 97.0 °F 46.0 °F 18% 29.65 in 10.0 mi NW 3.5 mph - N/A   Clear
5:54 PM 96.1 °F 46.0 °F 18% 29.64 in 10.0 mi WNW 4.6 mph - N/A   Clear
6:54 PM 93.9 °F 48.0 °F 21% 29.65 in 10.0 mi WNW 4.6 mph - N/A   Clear
7:54 PM 88.0 °F 50.0 °F 27% 29.65 in 10.0 mi Calm Calm - N/A   Clear
8:54 PM 87.1 °F 46.0 °F 24% 29.67 in 9.0 mi NNE 3.5 mph - N/A   Clear
9:54 PM 84.0 °F 46.9 °F 27% 29.67 in 10.0 mi Calm Calm - N/A   Clear
10:54 PM 84.9 °F 48.9 °F 29% 29.68 in 10.0 mi East 4.6 mph - N/A   Clear
11:54 PM 81.0 °F 48.0 °F 31% 29.68 in 10.0 mi Calm Calm - N/A   Clear